World > North America > United States > Florida   City of Miami, FL

Miami, Florida Regional Weather

Lat: 25.77N, Lon: 80.2W
Wx Zone: FLZ074Web Search
Miami Weather Warning NWS WEATHER ALERT FOR THE MIAMI, FL AREA - Issued: 404 PM EST Tue Mar 2 2021 Miami Weather Warning  

Ads allow us to feed your daily addiction for the world's greatest weather information. We're determined to offer quality sponsors, in the least annoying way possible.

Feedback
Miami Weather Map
UTC Time: 3/2/2021, 23:43
Your Time:

Miami, FL Regional Weather

Expires:202103030000;;380940
ASUS42 KTBW 022318
RWRFL 
FLORIDA REGIONAL WEATHER ROUNDUP
NATIONAL WEATHER SERVICE TAMPA BAY RUSKIN FL
600 PM EST TUE MAR 02 2021

NOTE: "FAIR" INDICATES FEW OR NO CLOUDS BELOW 12,000 FEET WITH NO
SIGNIFICANT WEATHER AND/OR OBSTRUCTIONS TO VISIBILITY.


FLZ067-068-071>074-168-172>174-030000-
SOUTHEAST FLORIDA 
  
CITY           SKY/WX    TMP DP  RH WIND       PRES   REMARKS
W PALM BEACH   MOCLDY    79  68  69 S13       29.99S                  
BOCA RATON     CLEAR     79  66  65 S15       29.98F                  
FT LAUDER-EXEC PTCLDY    80  65  59 S10       29.98S                  
FT LAUDERDALE  MOCLDY    81  66  61 S8        30.00S                  
POMPANO BEACH  PTCLDY    78  69  73 S15       29.99S                  
PEMBROKE PINES PTCLDY    79  63  57 SE13      30.00S                  
OPA LOCKA      CLEAR     79  63  57 S10       29.99S                  
MIAMI          MOCLDY    79  66  64 SE9       29.99F                  
WEST KENDALL   CLEAR     81  65  58 S6        29.99S                  
HOMESTEAD      PTCLDY    79  68  69 SE6       29.99S                  

STATION/POSITION SKY/WX   TEMP    WIND        PRES    WAVE   SWELL
                          AIR SEA DIR/SP/G            HT/PER HT/PER
                          (F)     (DEG/KT/KT) (MB)    (FT/S) (FT/S)

$$

  

SKY/WX - Weather  TMP - Temperature  DP - Dew Point  RH - Relative Humidity
WIND - Wind Direction/Speed PRES - Barometric Pressure VSB - Visibility
WCI - Wind Chill Index E13G22 Wind - East Wind 13 mph/Gusts of 22 mph